Weather History for Amman, Jordan

Change the Weather History Date:

Monday, December 31, 2012

  Actual Average Record
Temperature  
Mean Temperature 50 °F -  
Max Temperature 60 °F 52 °F 71 °F (1999)
Min Temperature 41 °F 39 °F 35 °F (2007)
Degree Days  
Heating Degree Days 14    
Moisture  
Dew Point 35 °F    
Average Humidity 55    
Maximum Humidity 93    
Minimum Humidity 25    
Precipitation  
Precipitation 0.00 in 0.08 in - ()
Sea Level Pressure  
Sea Level Pressure 30.14 in    
Wind  
Wind Speed 1 mph ()    
Max Wind Speed 8 mph    
Max Gust Speed -    
Visibility 3.5 miles    
Events      
Averages and records for this station are not official NWS values.
T = Trace of Precipitation, MM = Missing Value Source: Averaged Metar Reports

Daily Weather History Graph

Daily Weather History Graph

Search for Another Location

Airport:

Trip Planner

Search our weather history database for the weather conditions in past years. The results will help you decide how hot, cold, wet, or windy it might be!

Date:

Astronomy

Dec. 31, 2012 Rise Set
Actual Time 7:36 AM EEST 5:42 PM EEST
Civil Twilight 7:09 AM EEST 6:09 PM EEST
Nautical Twilight 6:38 AM EEST 6:39 PM EEST
Astronomical Twilight 6:09 AM EEST 7:09 PM EEST
Moon 8:40 PM EEST (12/31) 9:17 AM EEST (12/31)
Length of Visible Light 10h 59m
Length of Day
10h 05m
Waning Gibbous, 92% of the Moon is Illuminated
Dec 31
Waning Gibbous
Jan 5
Last Quarter
Jan 11
New
Jan 19
First Quarter
Jan 27
Full

Hourly Weather History & Observations

Time (EEST) Temp. Windchill Dew Point Humidity Pressure Visibility Wind Dir Wind Speed Gust Speed Precip Events Conditions
12:00 AM 46.4 °F - 41.0 °F 81% 30.15 in 3.1 mi Calm Calm - N/A   Haze
1:00 AM 46.4 °F - 41.0 °F 81% 30.12 in 3.1 mi Calm Calm - N/A   Haze
2:00 AM 44.6 °F - 42.8 °F 93% 30.12 in 3.1 mi Calm Calm - N/A   Mist
3:00 AM 42.8 °F - 39.2 °F 87% 30.12 in 2.5 mi Calm Calm - N/A   Mist
4:00 AM 42.8 °F - 37.4 °F 81% 30.15 in 2.5 mi Calm Calm - N/A   Smoke
5:00 AM 42.8 °F - 35.6 °F 76% 30.12 in 2.5 mi Calm Calm - N/A   Smoke
6:00 AM 44 °F - 34 °F 58% 30.14 in 2 mi Calm Calm - -   Haze
6:00 AM 42.8 °F - 33.8 °F 70% 30.15 in 2.5 mi Calm Calm - N/A   Haze
7:00 AM 42.8 °F - 33.8 °F 70% 30.18 in 3.1 mi Calm Calm - N/A   Haze
8:00 AM 42.8 °F - 33.8 °F 70% 30.15 in 3.1 mi Calm Calm - N/A   Haze
9:00 AM 47 °F - 35 °F 52% 30.15 in 4 mi SE 4.6 mph - -   Haze
9:00 AM 46.4 °F 44.3 °F 35.6 °F 66% 30.15 in 3.7 mi SE 4.6 mph - N/A   Unknown
10:00 AM 48.2 °F - 33.8 °F 58% 30.15 in 3.7 mi ESE 5.8 mph - N/A   Unknown
11:00 AM 51.8 °F - 33.8 °F 50% 30.18 in 3.7 mi ESE 8.1 mph - N/A   Unknown
12:00 PM 53 °F - 33 °F 35% 30.19 in 4 mi ESE 5.8 mph - -   Haze
12:00 PM 53.6 °F - 33.8 °F 47% 30.18 in 3.7 mi ESE 5.8 mph - N/A   Unknown
1:00 PM 57.2 °F - 32.0 °F 38% 30.18 in 3.7 mi SSE 5.8 mph - N/A   Unknown
2:00 PM 59.0 °F - 32.0 °F 36% 30.12 in 3.7 mi SE 5.8 mph - N/A   Unknown
3:00 PM 60 °F - 34 °F 25% 30.12 in 4 mi ESE 3.5 mph - -   Haze
3:00 PM 60.8 °F - 33.8 °F 36% 30.12 in 4.3 mi ESE 3.5 mph - N/A   Unknown
4:00 PM 59.0 °F - 32.0 °F 36% 30.12 in 4.3 mi Calm Calm - N/A   Unknown
5:00 PM 57.2 °F - 32.0 °F 38% 30.12 in 4.3 mi Calm Calm - N/A   Unknown
6:00 PM 55 °F - 33 °F 31% 30.12 in 4 mi Calm Calm - -   Haze
6:00 PM 55.4 °F - 33.8 °F 44% 30.12 in 3.7 mi Calm Calm - N/A   Unknown
7:00 PM 53.6 °F - 33.8 °F 47% 30.12 in 3.7 mi Calm Calm - N/A   Unknown
8:00 PM 51.8 °F - 33.8 °F 50% 30.12 in 3.7 mi ESE 4.6 mph - N/A   Unknown
9:00 PM 52 °F - 33 °F 37% 30.15 in 4 mi Calm Calm - -   Haze
9:00 PM 51.8 °F - 33.8 °F 50% 30.15 in 3.7 mi Calm Calm - N/A   Unknown
10:00 PM 51.8 °F - 33.8 °F 50% 30.12 in 3.1 mi ESE 4.6 mph - N/A   Haze
11:00 PM 51.8 °F - 33.8 °F 50% 30.15 in 3.1 mi Calm Calm - N/A   Haze